Location: Wavehorne
(51.0500°N, 0.8333°E)
Time: 19:38:34
(UTC+00:00)

Cosmos 1076 Rocket - Pass Details

Date: 20 June 2021
Orbit: 590 x 611 km, 82.5° (Epoch: 23 July)

Event Time Altitude Azimuth Distance (km) Brightness Sun altitude
Exits shadow 01:49:43 16° 193° (SSW) 1,548 5.0 -11.6°
Maximum altitude 01:53:02 82° 280° (W) 604 3.5 -11.3°
Drops below altitude 10° 01:57:19 10° 9° (N) 1,935 7.4 -11.0°
Sets 01:59:32 0° 10° (N) 2,843 8.6 -10.9°
